AUA72AQ LOWW-LYBE

Flight info

Callsign AUA72AQ
Flight time 0h 52m
Altitude 31000
Route ARSIN DCT NALOX DCT BABIT DCT RIGMU
Aircraft A320/M-SDE3FGHIRWY/LB1

Departure

Time 2026-04-20 04:18
Airport Vienna International Airport (LOWW)

Arrival

Time 2026-04-20 05:11
Airport Belgrade Nikola Tesla Airport (LYBE)
Time Latitude Longitude Altitude Speed Heading
2026-04-20 03:44 48.11994 16.57042 610 ft 0 kts 26°
2026-04-20 04:10 48.12002 16.57048 609 ft 3 kts 26°
2026-04-20 04:11 48.12017 16.57059 616 ft 2 kts 26°
2026-04-20 04:11 48.12033 16.57071 614 ft 3 kts 28°
2026-04-20 04:11 48.12050 16.57103 622 ft 6 kts 69°
2026-04-20 04:11 48.12040 16.57153 622 ft 5 kts 116°
2026-04-20 04:12 48.12017 16.57223 618 ft 7 kts 116°
2026-04-20 04:12 48.11995 16.57288 614 ft 7 kts 114°
2026-04-20 04:12 48.11991 16.57352 621 ft 6 kts 94°
2026-04-20 04:12 48.11955 16.57409 613 ft 9 kts 158°
2026-04-20 04:13 48.11910 16.57429 618 ft 14 kts 164°
2026-04-20 04:13 48.11801 16.57475 613 ft 16 kts 164°
2026-04-20 04:13 48.11697 16.57520 618 ft 15 kts 164°
2026-04-20 04:13 48.11570 16.57574 613 ft 14 kts 164°
2026-04-20 04:14 48.11509 16.57599 612 ft 13 kts 165°
2026-04-20 04:14 48.11424 16.57634 618 ft 12 kts 165°
2026-04-20 04:14 48.11344 16.57668 614 ft 12 kts 164°
2026-04-20 04:14 48.11273 16.57688 612 ft 9 kts 188°
2026-04-20 04:15 48.11215 16.57649 615 ft 9 kts 206°
2026-04-20 04:15 48.11164 16.57611 622 ft 8 kts 206°
2026-04-20 04:15 48.11116 16.57597 612 ft 7 kts 162°
2026-04-20 04:15 48.11084 16.57641 619 ft 6 kts 138°
2026-04-20 04:16 48.11051 16.57652 619 ft 4 kts 185°
2026-04-20 04:16 48.11029 16.57637 609 ft 1 kts 206°
2026-04-20 04:16 48.11013 16.57626 614 ft 5 kts 206°
2026-04-20 04:16 48.10981 16.57602 620 ft 6 kts 206°
2026-04-20 04:17 48.10948 16.57577 617 ft 5 kts 206°
2026-04-20 04:17 48.10919 16.57554 618 ft 4 kts 219°
2026-04-20 04:17 48.10918 16.57518 614 ft 4 kts 282°
2026-04-20 04:17 48.10938 16.57459 609 ft 9 kts 296°
2026-04-20 04:18 48.11044 16.57142 623 ft 72 kts 296°
2026-04-20 04:18 48.11364 16.56156 614 ft 135 kts 295°
2026-04-20 04:18 48.11833 16.54745 1033 ft 153 kts 297°
2026-04-20 04:18 48.12050 16.53237 2020 ft 151 kts 265°
2026-04-20 04:19 48.11598 16.51766 2751 ft 169 kts 233°
2026-04-20 04:19 48.10616 16.50570 3151 ft 195 kts 223°
2026-04-20 04:19 48.09471 16.49260 3519 ft 222 kts 223°
2026-04-20 04:19 48.08142 16.47819 4009 ft 250 kts 213°
2026-04-20 04:20 48.06367 16.47217 4715 ft 277 kts 182°
2026-04-20 04:20 48.04417 16.47431 5691 ft 284 kts 176°
2026-04-20 04:20 48.02448 16.47848 6736 ft 288 kts 174°
2026-04-20 04:20 48.00453 16.48324 7719 ft 292 kts 174°
2026-04-20 04:21 47.98426 16.48703 8692 ft 295 kts 182°
2026-04-20 04:21 47.96395 16.48397 9657 ft 293 kts 199°
2026-04-20 04:21 47.94494 16.47300 10475 ft 298 kts 212°
2026-04-20 04:21 47.92588 16.45820 10885 ft 319 kts 212°
2026-04-20 04:22 47.90574 16.44299 11629 ft 330 kts 207°
2026-04-20 04:22 47.88337 16.43333 12502 ft 340 kts 193°
2026-04-20 04:22 47.85954 16.43200 13407 ft 348 kts 178°
2026-04-20 04:22 47.83555 16.43921 14264 ft 354 kts 168°
2026-04-20 04:23 47.81169 16.44883 15043 ft 357 kts 168°
2026-04-20 04:23 47.78759 16.45847 15808 ft 360 kts 168°
2026-04-20 04:23 47.76328 16.46811 16552 ft 364 kts 169°
2026-04-20 04:23 47.73868 16.47781 17308 ft 367 kts 169°
2026-04-20 04:24 47.71384 16.48760 18049 ft 371 kts 169°
2026-04-20 04:24 47.68879 16.49766 18706 ft 376 kts 167°
2026-04-20 04:24 47.66449 16.51310 19330 ft 386 kts 154°
2026-04-20 04:24 47.64255 16.53665 19941 ft 395 kts 140°
2026-04-20 04:25 47.62434 16.56760 20533 ft 403 kts 126°
2026-04-20 04:25 47.61104 16.60446 21132 ft 409 kts 114°
2026-04-20 04:25 47.59978 16.64325 21743 ft 412 kts 115°
2026-04-20 04:25 47.58580 16.67964 22292 ft 412 kts 128°
2026-04-20 04:26 47.56641 16.71148 22891 ft 412 kts 142°
2026-04-20 04:26 47.54349 16.73573 23444 ft 410 kts 155°
2026-04-20 04:26 47.51748 16.75246 23956 ft 407 kts 167°
2026-04-20 04:26 47.48990 16.76080 24425 ft 403 kts 179°
2026-04-20 04:27 47.46189 16.76363 24899 ft 405 kts 181°
2026-04-20 04:27 47.43373 16.76633 25363 ft 407 kts 181°
2026-04-20 04:27 47.40530 16.76906 25823 ft 410 kts 181°
2026-04-20 04:27 47.37672 16.77182 26277 ft 413 kts 181°
2026-04-20 04:28 47.34798 16.77463 26724 ft 416 kts 180°
2026-04-20 04:28 47.31897 16.77748 27164 ft 419 kts 180°
2026-04-20 04:28 47.28982 16.78032 27594 ft 422 kts 181°
2026-04-20 04:28 47.26041 16.78310 28027 ft 424 kts 181°
2026-04-20 04:29 47.23085 16.78582 28456 ft 427 kts 181°
2026-04-20 04:29 47.20106 16.78856 28864 ft 430 kts 181°
2026-04-20 04:29 47.17111 16.79136 29273 ft 433 kts 181°
2026-04-20 04:29 47.14092 16.79424 29684 ft 436 kts 181°
2026-04-20 04:30 47.11054 16.79713 30087 ft 439 kts 181°
2026-04-20 04:30 47.07998 16.80007 30407 ft 442 kts 180°
2026-04-20 04:30 47.04914 16.80305 30724 ft 445 kts 180°
2026-04-20 04:30 47.01817 16.80600 30987 ft 448 kts 180°
2026-04-20 04:31 46.95730 16.81186 31057 ft 422 kts 180°
2026-04-20 04:31 46.90015 16.82635 31062 ft 421 kts 162°
2026-04-20 04:32 46.87390 16.84554 31060 ft 426 kts 150°
2026-04-20 04:32 46.85080 16.87287 31055 ft 430 kts 136°
2026-04-20 04:32 46.83216 16.90715 31059 ft 433 kts 123°
2026-04-20 04:32 46.81605 16.94510 31062 ft 447 kts 123°
2026-04-20 04:33 46.79936 16.98414 31057 ft 459 kts 123°
2026-04-20 04:33 46.78227 17.02379 31047 ft 464 kts 123°
2026-04-20 04:33 46.74768 17.10374 31068 ft 467 kts 123°
2026-04-20 04:34 46.71300 17.18370 31057 ft 466 kts 123°
2026-04-20 04:34 46.67837 17.26350 31056 ft 466 kts 123°
2026-04-20 04:35 46.64369 17.34307 31050 ft 465 kts 123°
2026-04-20 04:35 46.60897 17.42253 31054 ft 465 kts 123°
2026-04-20 04:36 46.55682 17.54142 31049 ft 465 kts 123°
2026-04-20 04:37 46.52206 17.62053 31050 ft 464 kts 123°
2026-04-20 04:37 46.48727 17.69942 31048 ft 464 kts 123°
2026-04-20 04:38 46.45238 17.77819 31042 ft 464 kts 123°
2026-04-20 04:38 46.41737 17.85713 31026 ft 466 kts 123°
2026-04-20 04:39 46.38219 17.93601 31021 ft 467 kts 123°
2026-04-20 04:39 46.34686 18.01505 31020 ft 468 kts 123°
2026-04-20 04:40 46.31150 18.09412 31028 ft 468 kts 123°
2026-04-20 04:40 46.27607 18.17318 31030 ft 468 kts 123°
2026-04-20 04:41 46.24058 18.25203 31034 ft 468 kts 123°
2026-04-20 04:41 46.20500 18.33075 31039 ft 468 kts 123°
2026-04-20 04:42 46.16963 18.40880 31046 ft 468 kts 123°
2026-04-20 04:42 46.13395 18.48721 31042 ft 467 kts 123°
2026-04-20 04:43 46.09832 18.56550 31042 ft 467 kts 123°
2026-04-20 04:43 46.06269 18.64371 31041 ft 467 kts 123°
2026-04-20 04:44 46.02703 18.72168 31040 ft 467 kts 123°
2026-04-20 04:44 45.99123 18.79961 31028 ft 466 kts 123°
2026-04-20 04:45 45.95537 18.87732 30853 ft 466 kts 123°
2026-04-20 04:45 45.93576 18.91427 30748 ft 466 kts 133°
2026-04-20 04:45 45.91197 18.94578 30649 ft 466 kts 143°
2026-04-20 04:45 45.88508 18.97164 30512 ft 465 kts 148°
2026-04-20 04:46 45.85776 18.99653 30368 ft 466 kts 148°
2026-04-20 04:46 45.83034 19.02140 30217 ft 466 kts 148°
2026-04-20 04:46 45.80295 19.04622 30059 ft 466 kts 148°
2026-04-20 04:46 45.77555 19.07103 29878 ft 466 kts 148°
2026-04-20 04:47 45.74813 19.09590 29594 ft 467 kts 148°
2026-04-20 04:47 45.72074 19.12079 29303 ft 467 kts 148°
2026-04-20 04:47 45.69332 19.14573 28928 ft 467 kts 148°
2026-04-20 04:47 45.66586 19.17065 28522 ft 468 kts 148°
2026-04-20 04:48 45.63835 19.19553 28031 ft 468 kts 148°
2026-04-20 04:48 45.61078 19.22039 27546 ft 469 kts 148°
2026-04-20 04:48 45.58325 19.24519 27074 ft 467 kts 148°
2026-04-20 04:48 45.55588 19.26984 26604 ft 463 kts 148°
2026-04-20 04:49 45.52876 19.29425 26141 ft 460 kts 148°
2026-04-20 04:49 45.50174 19.31855 25694 ft 457 kts 148°
2026-04-20 04:49 45.47499 19.34258 25247 ft 453 kts 148°
2026-04-20 04:49 45.44840 19.36641 24818 ft 450 kts 148°
2026-04-20 04:50 45.42307 19.39223 24388 ft 447 kts 139°
2026-04-20 04:50 45.40183 19.42428 23957 ft 443 kts 127°
2026-04-20 04:50 45.38525 19.46107 23527 ft 440 kts 119°
2026-04-20 04:50 45.36997 19.49855 23026 ft 437 kts 119°
2026-04-20 04:51 45.35470 19.53584 22539 ft 434 kts 119°
2026-04-20 04:51 45.33950 19.57279 22050 ft 431 kts 120°
2026-04-20 04:51 45.32439 19.60937 21580 ft 428 kts 120°
2026-04-20 04:51 45.30935 19.64571 21119 ft 425 kts 120°
2026-04-20 04:52 45.29443 19.68183 20651 ft 422 kts 120°
2026-04-20 04:52 45.27961 19.71768 20198 ft 419 kts 119°
2026-04-20 04:52 45.26490 19.75324 19744 ft 417 kts 119°
2026-04-20 04:52 45.25047 19.78809 19317 ft 414 kts 119°
2026-04-20 04:53 45.23574 19.82365 18839 ft 411 kts 119°
2026-04-20 04:53 45.22150 19.85804 18371 ft 408 kts 119°
2026-04-20 04:53 45.20713 19.89273 17966 ft 409 kts 122°
2026-04-20 04:53 45.19270 19.92753 17440 ft 409 kts 122°
2026-04-20 04:54 45.17826 19.96225 16904 ft 407 kts 122°
2026-04-20 04:54 45.16392 19.99663 16383 ft 404 kts 122°
2026-04-20 04:54 45.14962 20.03077 15870 ft 402 kts 122°
2026-04-20 04:54 45.13540 20.06472 15358 ft 399 kts 122°
2026-04-20 04:55 45.12129 20.09841 14878 ft 397 kts 122°
2026-04-20 04:55 45.10725 20.13188 14388 ft 393 kts 122°
2026-04-20 04:55 45.09336 20.16498 13912 ft 389 kts 123°
2026-04-20 04:55 45.08201 20.19201 13487 ft 386 kts 123°
2026-04-20 04:56 45.07022 20.22006 13087 ft 375 kts 123°
2026-04-20 04:56 45.05720 20.25107 12695 ft 361 kts 123°
2026-04-20 04:56 45.04455 20.28109 12306 ft 349 kts 123°
2026-04-20 04:56 45.03224 20.31014 11909 ft 340 kts 123°
2026-04-20 04:57 45.02027 20.33841 11528 ft 330 kts 123°
2026-04-20 04:57 45.00869 20.36592 11155 ft 322 kts 123°
2026-04-20 04:57 44.99744 20.39267 10817 ft 313 kts 123°
2026-04-20 04:57 44.98647 20.41864 10547 ft 302 kts 123°
2026-04-20 04:58 44.97582 20.44374 10285 ft 294 kts 123°
2026-04-20 04:58 44.96536 20.46835 10012 ft 290 kts 123°
2026-04-20 04:58 44.95499 20.49269 9729 ft 288 kts 124°
2026-04-20 04:58 44.94815 20.50870 9532 ft 287 kts 123°
2026-04-20 04:59 44.93790 20.53275 9231 ft 286 kts 123°
2026-04-20 04:59 44.92769 20.55671 8941 ft 283 kts 123°
2026-04-20 04:59 44.91762 20.58037 8647 ft 279 kts 123°
2026-04-20 04:59 44.90758 20.60365 8368 ft 276 kts 126°
2026-04-20 05:00 44.89519 20.62376 8091 ft 269 kts 141°
2026-04-20 05:00 44.87999 20.63849 7805 ft 263 kts 156°
2026-04-20 05:00 44.86302 20.64745 7520 ft 258 kts 170°
2026-04-20 05:00 44.84541 20.65171 7248 ft 257 kts 174°
2026-04-20 05:01 44.82776 20.65566 6979 ft 257 kts 174°
2026-04-20 05:01 44.81013 20.65964 6707 ft 257 kts 173°
2026-04-20 05:01 44.79280 20.66565 6433 ft 258 kts 160°
2026-04-20 05:01 44.77708 20.67796 6154 ft 260 kts 144°
2026-04-20 05:02 44.76426 20.69579 5867 ft 261 kts 128°
2026-04-20 05:02 44.75440 20.71717 5576 ft 260 kts 122°
2026-04-20 05:02 44.74274 20.73628 5293 ft 258 kts 147°
2026-04-20 05:02 44.72638 20.74511 5015 ft 252 kts 178°
2026-04-20 05:03 44.70945 20.74169 4737 ft 245 kts 207°
2026-04-20 05:03 44.69455 20.73028 4462 ft 243 kts 215°
2026-04-20 05:03 44.68024 20.71765 4178 ft 243 kts 216°
2026-04-20 05:03 44.66614 20.70465 4004 ft 238 kts 222°
2026-04-20 05:04 44.65776 20.68644 3978 ft 216 kts 263°
2026-04-20 05:04 44.65992 20.66634 3891 ft 209 kts 296°
2026-04-20 05:04 44.66693 20.64851 3796 ft 209 kts 302°
2026-04-20 05:04 44.67456 20.63142 3692 ft 208 kts 303°
2026-04-20 05:05 44.68229 20.61423 3595 ft 208 kts 303°
2026-04-20 05:05 44.68999 20.59708 3495 ft 207 kts 303°
2026-04-20 05:05 44.69764 20.58003 3404 ft 205 kts 303°
2026-04-20 05:05 44.70511 20.56334 3293 ft 198 kts 303°
2026-04-20 05:06 44.71234 20.54720 3195 ft 192 kts 303°
2026-04-20 05:06 44.71935 20.53153 3105 ft 188 kts 303°
2026-04-20 05:06 44.72617 20.51628 3008 ft 180 kts 303°
2026-04-20 05:06 44.73263 20.50184 3015 ft 169 kts 304°
2026-04-20 05:07 44.73878 20.48806 2991 ft 164 kts 304°
2026-04-20 05:07 44.74473 20.47475 2849 ft 159 kts 304°
2026-04-20 05:07 44.75057 20.46167 2653 ft 157 kts 305°
2026-04-20 05:07 44.75639 20.44862 2470 ft 157 kts 306°
2026-04-20 05:08 44.76216 20.43569 2267 ft 156 kts 306°
2026-04-20 05:08 44.76777 20.42310 2057 ft 149 kts 307°
2026-04-20 05:08 44.77309 20.41113 1870 ft 137 kts 308°
2026-04-20 05:08 44.77795 20.40020 1686 ft 128 kts 308°
2026-04-20 05:09 44.78265 20.38967 1505 ft 126 kts 307°
2026-04-20 05:09 44.78728 20.37929 1328 ft 126 kts 306°
2026-04-20 05:09 44.79114 20.37060 1175 ft 126 kts 303°
2026-04-20 05:09 44.79576 20.36020 1006 ft 125 kts 302°
2026-04-20 05:10 44.80038 20.34984 829 ft 125 kts 301°
2026-04-20 05:10 44.80497 20.33935 625 ft 126 kts 300°
2026-04-20 05:10 44.80962 20.32887 414 ft 126 kts 301°
2026-04-20 05:10 44.81419 20.31855 310 ft 115 kts 300°
2026-04-20 05:11 44.81694 20.31232 306 ft 32 kts 303°
2026-04-20 05:11 44.81775 20.31059 306 ft 20 kts 303°
2026-04-20 05:11 44.81842 20.30892 308 ft 20 kts 290°
2026-04-20 05:11 44.81867 20.30709 307 ft 15 kts 275°
2026-04-20 05:12 44.81872 20.30565 307 ft 15 kts 272°
2026-04-20 05:12 44.81874 20.30416 307 ft 10 kts 271°
2026-04-20 05:12 44.81893 20.30347 306 ft 8 kts 298°
2026-04-20 05:12 44.81923 20.30269 307 ft 10 kts 298°
2026-04-20 05:13 44.81960 20.30176 309 ft 12 kts 300°
2026-04-20 05:13 44.82009 20.30067 306 ft 14 kts 302°
2026-04-20 05:13 44.82031 20.30019 307 ft 0 kts 303°
2026-04-20 05:14 44.82038 20.30006 306 ft 3 kts 304°
2026-04-20 05:14 44.82047 20.29986 306 ft 2 kts 304°
2026-04-20 05:14 44.82057 20.29966 308 ft 6 kts 304°
2026-04-20 05:14 44.82077 20.29924 307 ft 4 kts 304°
2026-04-20 05:15 44.82096 20.29883 307 ft 6 kts 304°
2026-04-20 05:15 44.82130 20.29814 307 ft 10 kts 303°
2026-04-20 05:15 44.82155 20.29713 307 ft 12 kts 253°
2026-04-20 05:15 44.82083 20.29632 309 ft 15 kts 213°
2026-04-20 05:16 44.81993 20.29549 307 ft 16 kts 212°
2026-04-20 05:16 44.81903 20.29471 308 ft 16 kts 212°
2026-04-20 05:16 44.81808 20.29386 307 ft 17 kts 212°
2026-04-20 05:16 44.81718 20.29307 307 ft 11 kts 211°
2026-04-20 05:17 44.81696 20.29215 307 ft 11 kts 280°
2026-04-20 05:17 44.81653 20.29149 307 ft 8 kts 167°
2026-04-20 05:17 44.81625 20.29207 308 ft 6 kts 122°
2026-04-20 05:17 44.81616 20.29227 308 ft 0 kts 122°